Regional Weather Roundup
Issued by NWS

Home | Current Version | Previous Version | Text Only | Print | Product List | Glossary Off
Versions: 1 2 3 4 5 6 7 8 9 10 11 12 13 14 15 16 17 18 19 20 21 22 23 24 25 26 27 28 29 30 31 32 33 34 35 36 37 38 39 40 41 42 43 44 45 46 47 48 49 50

000
ASUS43 KMPX 220910
RWRMN
WEATHER ROUNDUP FOR MINNESOTA
NATIONAL WEATHER SERVICE TWIN CITIES/CHANHASSEN MN
300 AM CST WED FEB 22 2017


NOTE: "FAIR" INDICATES FEW OR NO CLOUDS BELOW 12,000 FEET WITH NO
SIGNIFICANT WEATHER AND/OR OBSTRUCTIONS TO VISIBILITY. N/A MEANS
CURRENT SKY AND/OR WEATHER CONDITIONS ARE NOT AVAILABLE.

MNZ060>063-068>070-221000-
   Twin Cities Metro

CITY           SKY/WX    TMP DP  RH WIND       PRES   REMARKS
TWIN CITIES    MOCLDY    41  39  93 CALM      29.65F
ST PAUL        CLOUDY    38  38 100 CALM      29.65S FOG
CRYSTAL        MOCLDY    35  33  92 SW3       29.64R FOG
BLAINE         FOG       37  37 100 CALM      29.63F VSB 1/4
LAKEVILLE      CLOUDY    37  37 100 CALM      29.64S
EDEN PRAIRIE   MOCLDY    41  38  89 CALM      29.63F FOG
SOUTH ST PAUL  CLOUDY    41  40  98 CALM      29.63F FOG
LAKE ELMO      FAIR      37  37 100 CALM      29.65F FOG
$$
MNZ001>005-007-008-013>017-022>024-027-028-221000-
   Northwest Minnesota

CITY           SKY/WX    TMP DP  RH WIND       PRES   REMARKS
BEMIDJI        CLOUDY    33  33 100 CALM      29.62F FOG
HALLOCK        MIX PCPN  34  32  93 CALM      29.68R
ROSEAU         CLOUDY    30  27  86 NE7       29.65F HAZE    WCI  23
WARROAD        CLOUDY    32  28  86 N5        29.67F WCI  27
THIEF RVR FALL PTCLDY    32  31  96 NW3       29.66S FOG
CROOKSTON      CLOUDY    32  32 100 N6        29.68R FOG     WCI  26
FOSSTON        FOG       32  30  93 CALM      29.64F VSB 1/4
DETROIT LAKES  CLOUDY    34  32  93 E3        29.61F
MOORHEAD       FOG       32  30  93 N6        29.64R VSB 1/4 WCI  26
PARK RAPIDS    CLOUDY    34  31  88 SE5       29.61F WCI  30
MAHNOMEN       PTSUNNY   32  32 100 N5        29.62F FOG     WCI  27
$$
MNZ006-009>011-018-025>026-221000-
   North Central Minnesota

CITY           SKY/WX    TMP DP  RH WIND       PRES   REMARKS
BAUDETTE       CLOUDY    32  30  92 CALM      29.65F
FLAG ISLAND    CLOUDY    34  30  86 NE6       29.67F WCI  29
INTL FALLS     CLOUDY    32  30  92 NE3       29.65S
WASKISH        CLOUDY    34  34 100 CALM      29.65S
BIG FORK       CLOUDY    34  32  93 CALM      29.63F
LONGVILLE      CLOUDY    32  32 100 CALM      29.63F
GRAND RAPIDS   CLOUDY    35  35 100 CALM      29.65S
CRANE LAKE     CLOUDY    28  28 100 CALM      29.66S FOG
ORR            CLOUDY    30  28  93 CALM      29.60F
COOK           CLOUDY    34  32  93 CALM      29.63F
WALKER         DRIZZLE   33  33  98 NE3       29.62F
$$
MNZ012-019>021-037-221000-
   Northeast Minnesota

CITY           SKY/WX    TMP DP  RH WIND       PRES   REMARKS
DULUTH         CLOUDY    34  33  96 NW6       29.63R WCI  29
ELY            CLOUDY    34  32  93 CALM      29.63R
HIBBING        PTCLDY    30  30 100 CALM      29.63S FOG
EVELETH        CLOUDY    35  33  93 CALM      29.64F
DULUTH HARBOR  PTCLDY    34  30  86 CALM      29.64F FOG
TWO HARBORS    PTCLDY    37  34  87 NW5       29.61S
SILVER BAY     PTCLDY    34  34 100 CALM      29.61R
GRAND MARAIS     N/A     37  34  89 CALM      29.63R
G MARAIS ARPRT CLOUDY    34  28  80 CALM      29.60S
$$
MNZ029>031-032-039>041-046>048-054>057-064-221000-
   West Central Minnesota

CITY           SKY/WX    TMP DP  RH WIND       PRES   REMARKS
FERGUS FALLS   CLOUDY    37  36  93 E6        29.64F
WHEATON        CLOUDY    36  34  93 CALM      29.62S FOG
MORRIS         CLOUDY    37  36  93 CALM      29.58F
ALEXANDRIA     CLOUDY    37  36  96 E7        29.59F
ELBOW LAKE     CLOUDY    38  37  97 SE6       29.60F
WADENA         CLOUDY    34  34 100 CALM      29.61F
GLENWOOD       CLOUDY    36  36 100 E6        29.58F
APPLETON       CLOUDY    39  37  93 CALM      29.58S
BENSON         CLOUDY    45  37  76 E3        29.59R
ORTONVILLE     CLOUDY    37  34  87 CALM      29.60S
MADISON        PTCLDY    43  43 100 SW6       29.58F
WILLMAR        FAIR      43  43 100 SE14      29.59F
$$
MNZ033>034-036-042>043-049>051-058-059-221000-
   Central Minnesota

CITY           SKY/WX    TMP DP  RH WIND       PRES   REMARKS
ST CLOUD       FOG       33  33 100 SW3       29.64R VSB 1/2
SAUK CENTRE    FAIR      32  32 100 SE3       29.62F FOG
PAYNESVILLE    MOCLDY    40  40 100 E8        29.59F
AITKIN         FOG       32  28  86 CALM      29.61F VSB 1/4
PINE RIVER     CLOUDY    32  32 100 CALM      29.66F
BRAINERD       CLOUDY    31  30  96 NE3       29.62F
STAPLES        CLOUDY    32  32 100 CALM      29.62F FOG
LONG PRAIRIE   FAIR      34  34 100 N3        29.61F FOG
LITTLE FALLS   CLOUDY    32  30  93 CALM      29.63S
LITCHFIELD     CLOUDY    39  39 100 E5        29.64F FOG
BUFFALO        FOG       36  35  96 SW3       29.67R VSB 1/2
MAPLE LAKE     FOG       36  36 100 CALM      29.67R VSB 1/4
HUTCHINSON     LGT RAIN  43  42  98 S6        29.68S
$$
MNZ037-044-045-052-053-221000-
   East Central Minnesota

CITY           SKY/WX    TMP DP  RH WIND       PRES   REMARKS
PRINCETON      FOG       34  32  93 CALM      29.63F VSB 1/4
MORA           FOG       32  32 100 CALM      29.64F VSB 1/2
CAMBRIDGE      FOG       36  34  93 CALM      29.62S VSB 1/2
RUSH CITY      FOG       32  30  93 CALM      29.64S VSB 1/4
MOOSE LAKE     FOG       30  30 100 CALM      29.62R VSB 1/2
HINCKLEY       FOG       32  32 100 CALM      29.64F VSB 1/4
CLOQUET        CLOUDY    37  36  93 W5        29.62F
MCGREGOR       CLOUDY    32  32 100 N3        29.63F VSB 1/2
$$
MNZ071>073-080-081-089-090-097-098-221000-
   Southwest Minnesota

CITY           SKY/WX    TMP DP  RH WIND       PRES   REMARKS
MONTEVIDEO     MOCLDY    41  41 100 S8        29.58F
GRANITE FALLS  MOCLDY    44  42  94 NE7       29.58F
CANBY          CLEAR     42  40  95 SW5       29.59F
MARSHALL       CLEAR     44  40  85 S7        29.60F
REDWOOD FALLS  CLOUDY    45  40  82 SE10      29.61F
OLIVIA         CLOUDY    45  41  87 E5        29.60F
PIPESTONE      MOCLDY    46  36  66 SE7       29.61F
WINDOM         CLOUDY    48  37  66 NW9       29.63R
WORTHINGTON    PTCLDY    44  35  70 S10       29.62F
JACKSON        CLOUDY    41  34  75 S10       29.60F
TRACY          CLEAR     43  38  83 CALM      29.61F
SLAYTON        PTCLDY    49  38  66 N3        29.64S
$$
MNZ065>067-074>077-082>085-091>093-221000-
   South Central Minnesota

CITY           SKY/WX    TMP DP  RH WIND       PRES   REMARKS
MANKATO          N/A     41  38  89 SW10      29.66R
NEW ULM        MOCLDY    43  39  87 N6G14     29.65R
ST JAMES       CLOUDY    41  37  87 NW24G31   29.65R
FAIRMONT       CLOUDY    41  37  86 S10       29.62F
GLENCOE        CLOUDY    42  42 100 W3        29.66R
FARIBAULT      CLOUDY    43  39  87 S8        29.63F
OWATONNA       CLEAR     43  37  81 S13       29.63F
WASECA         CLEAR     41  36  81 SE12      29.63F
ALBERT LEA     PTCLDY    39  37  93 CALM      29.66F
$$
MNZ078>079-086>088-094>096-221000-
   Southeast Minnesota

CITY           SKY/WX    TMP DP  RH WIND       PRES   REMARKS
ROCHESTER      CLEAR     38  35  89 S10       29.67F
RED WING       CLOUDY    37  37 100 SE6       29.64F
STANTON        MOCLDY    42  38  83 S6        29.62F
DODGE CENTER   PTCLDY    39  36  87 S8        29.66F
WINONA         PTCLDY    46  36  66 CALM      29.69F
AUSTIN         CLEAR     37  34  87 CALM      29.68F
PRESTON        CLEAR     42  34  73 SW8       29.70S
$$
ABBREVIATIONS USED IN REMARKS
   TC - TEMPERATURES IN CELSIUS
  WCI - WIND CHILL INDEX
   HX - HEAT INDEX
  VSB - VISIBILITY
$$



USA.gov is the U.S. government's official web portal to all federal, state and local government web resources and services.